GFSNE_sfc_rhum_042.txt.gz
RH
96 96 98 98 98 97 96 96 95 93 78 67 78 80 85 86 82 79 80 73 84 83 80 81 78 82 86 92 91 91 89 67 62 62 64 66 66 68
90 82 81 83 82 86 82 84 87 92 90 70 59 76 77 63 73 70 73 59 67 84 86 79 77 80 85 89 90 90 90 84 58 56 52 55 59 60
75 74 74 73 75 76 77 80 82 87 84 68 75 72 76 79 64 63 66 69 74 70 78 82 80 81 83 89 92 89 88 86 84 70 53 51 48 54
71 76 77 61 75 78 81 81 80 81 84 88 77 77 76 72 66 69 55 45 63 53 69 71 77 85 84 85 92 93 92 86 84 83 78 61 51 51
77 78 78 74 76 80 80 82 83 78 88 88 83 78 75 73 70 71 66 68 54 54 58 64 68 69 83 84 88 92 87 91 90 84 81 80 78 63
77 79 79 77 77 78 77 77 75 81 80 81 81 79 81 74 76 75 74 70 66 54 59 67 67 66 68 74 84 83 80 84 86 92 89 87 84 78
81 77 77 76 74 72 70 76 76 81 77 80 81 78 78 81 80 73 75 74 75 74 71 70 72 71 74 70 68 72 83 84 87 87 87 86 84 84
91 85 83 77 80 71 70 70 70 79 86 83 83 84 78 80 79 80 82 86 90 79 83 84 78 72 70 71 70 73 76 75 84 86 87 87 85 84
80 78 72 61 72 74 76 76 76 77 79 89 95 89 88 80 83 86 88 87 87 79 84 89 88 87 80 69 73 74 79 78 77 80 86 88 89 89
76 76 78 80 78 73 76 85 82 76 76 76 78 79 81 79 85 84 91 92 90 76 79 95 86 88 86 84 77 72 70 76 80 80 79 83 87 89
72 75 75 79 79 79 94 92 83 78 69 72 80 78 77 78 77 89 93 96 95 83 91 92 88 89 86 86 86 77 74 75 78 82 82 82 85 86
82 75 78 76 76 72 90 96 95 84 86 86 85 82 80 84 83 85 90 91 85 84 82 93 80 82 92 86 86 87 89 82 82 83 84 84 85 85
86 85 83 81 71 73 78 93 95 92 90 91 88 91 95 95 95 94 92 92 91 85 76 83 90 90 89 88 86 84 89 90 90 88 84 86 86 85
92 90 90 71 69 73 80 86 87 92 94 93 91 88 92 92 92 96 97 94 88 81 75 94 95 92 92 92 88 85 86 89 90 89 90 85 84 89
90 76 73 72 75 84 76 82 90 92 93 93 92 89 90 91 91 91 93 99 97 95 92 98 95 88 92 92 90 88 84 85 90 93 95 95 91 94
91 90 93 88 89 86 84 85 91 92 94 93 92 90 88 90 92 93 93 95 96 95 97 98 98 98 95 91 93 93 89 84 89 90 97 97 96 94
94 96 95 93 91 88 86 84 85 82 87 92 92 90 88 89 91 94 92 92 94 93 93 92 95 97 100 97 94 92 92 92 90 90 96 96 91 90
90 100 100 100 100 95 94 91 86 82 86 88 91 89 90 91 91 91 90 93 93 92 93 93 88 92 96 94 92 94 94 91 88 86 88 94 84 83
96 98 100 100 100 96 95 91 93 85 84 88 92 92 91 90 93 92 92 90 90 89 89 91 88 90 95 96 86 88 91 91 97 95 94 93 91 79
95 98 99 100 100 95 95 93 90 90 88 90 94 95 96 94 92 91 92 96 92 87 82 81 89 91 86 89 91 95 90 93 91 92 93 90 90 87
95 95 97 98 98 96 100 100 99 96 94 96 95 94 97 95 93 92 92 94 94 83 85 85 83 89 91 94 98 96 95 83 81 88 85 89 90 87
97 96 94 96 98 98 100 100 99 98 95 92 96 97 97 96 96 96 96 94 88 89 88 85 86 88 92 93 94 95 95 91 84 92 84 94 94 92
98 96 97 98 98 99 96 99 98 100 96 94 95 94 97 97 94 93 93 89 85 87 86 87 81 81 91 90 93 93 98 95 94 90 89 85 90 92

GFSNE_sfc_rhum_045.txt.gz
RH
76 77 75 74 72 65 65 62 74 77 54 44 43 40 41 44 48 51 48 59 66 70 74 78 76 70 68 79 83 90 91 87 83 82 81 75 75 74
69 60 57 55 56 59 55 58 59 64 61 41 37 39 41 36 42 45 45 60 61 70 72 75 78 77 73 78 83 85 91 92 85 80 73 71 71 72
56 54 55 54 50 48 47 46 48 53 55 44 38 41 48 50 46 46 46 47 43 65 68 64 70 78 80 79 87 88 92 93 90 82 54 56 58 59
53 54 52 44 52 48 46 47 46 46 48 50 45 46 47 50 51 52 45 36 38 49 60 63 62 64 77 83 87 90 92 92 94 90 85 72 52 48
53 54 54 54 53 50 51 50 49 47 51 57 53 43 43 49 53 49 49 50 40 51 61 64 60 63 65 75 86 88 90 93 94 93 87 80 76 74
58 58 58 57 57 56 56 59 61 60 59 55 49 44 44 44 47 56 52 46 47 39 46 58 65 61 64 65 79 86 87 89 94 94 88 88 88 81
59 57 57 62 71 65 56 55 60 59 55 56 52 49 49 49 49 48 53 52 50 47 48 43 43 44 45 58 63 70 85 85 88 90 93 92 91 90
50 46 43 51 50 64 66 68 66 67 70 66 64 61 57 48 51 56 61 67 69 51 58 54 52 50 48 48 66 70 70 76 84 84 88 89 89 86
46 43 43 44 56 52 60 65 64 68 78 89 88 71 59 52 52 63 60 69 61 51 68 72 61 65 54 44 70 73 73 76 77 80 90 90 90 88
47 48 50 54 56 66 63 82 62 53 53 56 78 74 69 63 62 61 67 72 68 63 64 87 67 70 65 62 68 72 70 72 77 80 80 88 91 91
55 54 55 60 71 75 80 78 66 56 56 65 68 73 84 80 88 89 91 88 80 67 67 87 71 69 65 71 68 71 74 74 78 79 81 81 84 89
60 52 62 65 72 73 82 85 83 68 63 64 62 60 65 84 86 84 76 88 68 81 56 72 56 56 74 72 69 73 72 79 80 80 81 84 82 62
64 59 58 69 69 68 71 77 90 80 76 72 69 65 66 71 82 92 94 92 81 64 49 56 58 68 74 74 68 68 73 78 76 76 82 84 85 73
72 64 66 67 67 69 70 74 80 81 80 79 78 74 73 73 73 76 85 96 88 77 62 74 85 84 84 82 77 72 72 76 79 83 81 76 86 88
70 67 69 70 68 68 68 71 75 78 79 84 80 75 73 74 76 78 79 98 97 88 90 98 90 86 88 78 72 72 67 76 80 88 90 80 75 76
72 62 74 73 71 70 66 67 71 70 75 82 82 78 77 80 83 86 85 87 94 93 100 99 98 98 93 88 78 75 70 81 81 89 91 97 90 86
76 71 65 67 64 60 64 64 62 58 70 79 81 79 77 78 80 82 82 82 88 87 89 91 86 96 97 97 90 72 78 78 76 84 89 80 78 78
66 73 78 81 76 65 70 69 66 62 67 76 80 78 80 80 79 76 76 81 83 80 82 80 80 92 94 94 87 77 74 78 80 78 82 85 81 74
72 72 83 81 78 64 63 65 66 66 68 75 80 82 83 82 83 79 77 76 76 71 70 75 77 78 78 82 76 87 84 80 89 86 83 81 82 74
71 73 78 79 71 60 58 62 61 68 67 72 83 84 86 84 83 81 79 81 73 66 63 59 69 78 79 85 84 91 86 92 90 88 83 82 80 83
73 71 74 74 71 66 75 79 82 77 77 79 84 83 87 83 81 78 79 81 77 62 66 67 71 85 81 89 94 92 94 84 81 87 83 83 76 71
82 77 72 71 77 75 80 83 81 78 72 70 84 86 86 82 83 81 82 79 68 73 73 73 73 75 84 80 80 94 89 89 84 80 88 90 85 81
88 82 81 80 80 82 74 77 78 84 73 71 79 81 86 84 78 77 77 72 69 72 73 71 71 72 77 76 83 86 93 85 85 76 86 84 88 91

GFSNE_sfc_rhum_048.txt.gz
RH
62 61 53 42 43 39 38 39 53 60 40 33 30 28 27 28 34 36 37 48 59 66 68 62 60 60 65 69 67 65 74 84 84 92 86 89 88 76
49 47 45 39 38 37 33 35 36 40 43 30 28 30 30 24 33 38 38 54 54 61 70 64 66 65 66 72 72 69 74 83 84 90 89 86 82 84
47 46 44 41 39 38 37 36 36 36 39 35 29 31 35 36 34 40 42 38 36 62 72 63 62 66 65 68 80 77 81 85 89 87 89 88 84 85
45 44 44 33 44 41 37 39 39 38 38 43 36 35 38 37 37 40 36 32 35 41 63 56 60 63 66 71 77 85 86 88 91 91 92 87 80 69
46 47 47 45 44 40 41 41 40 35 42 49 45 39 38 37 38 40 43 42 32 48 60 61 64 61 60 64 69 81 88 92 92 93 94 90 85 77
49 50 46 46 46 46 43 43 38 38 43 58 53 45 40 39 40 41 41 39 40 31 46 58 58 54 60 61 67 69 83 89 90 94 94 96 92 85
47 41 41 45 53 53 47 47 47 46 48 51 51 49 47 45 44 40 41 41 42 41 45 44 39 37 39 61 57 65 74 87 85 92 94 96 94 93
41 39 36 42 42 57 60 62 60 57 59 60 60 62 54 51 48 52 57 54 64 45 60 63 45 50 40 36 68 66 66 69 85 88 90 94 96 93
42 39 36 30 48 42 54 61 65 78 89 84 80 65 67 64 57 59 54 54 55 51 57 74 59 59 50 36 59 63 70 72 73 78 89 88 91 92
44 44 43 44 46 61 56 65 57 52 54 48 59 67 61 55 58 68 79 70 62 49 50 72 65 65 58 53 66 68 72 72 72 77 78 87 92 92
48 45 46 48 59 67 73 77 65 58 52 62 63 67 70 71 72 93 81 81 86 69 54 76 63 65 59 63 68 73 74 73 74 79 78 80 85 91
53 45 59 56 66 66 74 79 84 65 57 59 57 54 55 57 77 88 78 82 67 73 48 82 54 47 66 58 57 63 68 79 78 77 76 78 82 61
60 51 49 63 64 66 66 72 81 68 69 71 65 64 66 61 61 65 72 92 88 76 47 54 49 52 58 76 64 63 65 78 69 73 80 80 83 71
69 56 59 64 65 66 67 68 67 70 78 73 75 73 71 70 66 68 74 75 86 90 67 72 69 68 76 74 64 62 67 69 70 74 76 76 84 85
67 66 67 62 60 60 59 64 65 64 66 71 78 73 73 75 78 82 78 86 96 97 77 87 81 79 80 76 79 64 68 67 73 78 79 82 82 71
66 60 64 71 62 58 56 56 62 63 63 70 74 72 70 77 81 79 81 74 94 97 96 97 94 90 82 78 69 79 67 78 75 77 83 88 89 78
77 73 63 60 53 50 53 54 55 53 56 66 73 71 71 68 73 78 76 75 85 78 89 95 94 100 99 100 94 64 67 72 76 87 75 75 72 80
68 72 77 78 71 57 60 59 56 56 53 59 67 66 70 75 74 73 71 77 82 77 77 76 77 98 89 87 85 88 72 84 72 75 77 86 81 76
74 70 81 79 76 58 52 52 57 57 60 55 66 68 68 67 78 79 76 75 76 67 68 67 73 75 74 94 77 85 91 72 78 82 79 84 86 81
73 75 76 75 68 54 50 51 55 63 63 59 68 73 74 71 70 71 75 79 72 62 58 56 65 76 85 92 91 95 86 92 82 80 76 74 72 82
70 66 70 69 64 60 68 73 75 75 75 74 71 71 77 70 68 65 65 67 66 55 69 72 67 78 74 81 95 92 92 79 84 88 77 76 74 71
77 70 67 67 71 69 76 77 76 75 71 65 71 75 76 73 70 68 69 68 60 63 73 70 70 73 80 72 89 94 85 85 81 78 86 89 91 90
85 80 78 77 76 77 68 72 69 78 70 66 67 70 75 75 66 66 66 61 58 63 65 69 68 68 72 67 76 85 89 81 79 79 89 83 85 86

GFSNE_sfc_rhum_051.txt.gz
RH
59 64 55 53 45 39 38 41 51 60 45 34 33 30 30 31 36 38 40 46 58 61 60 59 55 58 56 54 57 59 60 63 66 69 78 82 87 83
54 53 47 43 42 41 39 38 38 41 45 32 30 33 32 23 32 39 38 54 54 61 62 63 65 62 59 58 61 65 69 70 71 73 80 81 89 87
50 54 50 44 45 42 40 41 37 38 44 40 34 35 40 40 36 38 39 41 40 53 58 62 64 67 61 62 61 62 65 75 76 76 80 81 89 91
57 54 54 40 48 44 39 37 39 37 42 45 39 38 40 43 42 46 34 29 37 42 56 66 62 66 70 70 68 72 72 77 84 82 84 88 88 88
55 51 51 50 45 39 40 41 40 33 40 41 41 42 43 44 43 42 40 42 32 48 54 59 64 66 69 69 70 71 73 75 86 91 91 92 92 90
52 51 44 40 42 46 42 43 39 41 41 42 40 40 42 42 44 44 47 44 45 32 43 50 61 62 66 72 70 69 70 73 80 90 93 94 97 94
45 35 37 44 47 48 42 46 48 46 46 46 47 48 47 46 53 52 53 52 54 52 46 42 44 47 50 62 60 67 73 73 82 88 91 94 95 96
40 38 37 46 44 58 62 64 59 53 56 58 59 65 64 51 51 73 75 71 74 56 65 64 54 57 47 53 67 66 66 65 72 86 87 93 95 96
42 41 38 30 47 45 55 60 58 67 75 77 80 65 72 74 67 68 62 62 67 64 66 80 68 71 63 38 66 64 64 67 68 75 88 89 94 97
45 45 43 43 48 60 54 55 55 55 53 50 58 60 59 54 60 60 68 76 78 64 58 77 68 70 66 57 60 68 71 74 73 73 78 84 92 95
49 46 45 45 61 66 62 68 62 57 52 61 58 60 63 66 69 79 87 90 87 70 67 77 77 74 72 69 70 69 77 78 78 78 79 76 83 92
53 46 64 57 63 64 70 74 78 63 52 54 55 59 57 57 74 70 85 95 89 84 63 83 70 72 75 66 67 71 79 81 81 77 76 77 77 68
61 54 51 65 68 63 64 70 80 64 62 67 66 61 64 64 67 68 71 80 82 79 68 79 60 62 59 70 91 72 76 80 78 77 80 80 80 71
68 60 61 68 66 62 63 61 65 68 72 65 65 68 68 69 69 72 76 78 77 78 81 85 78 60 66 78 71 67 73 78 81 83 84 79 84 84
68 67 70 65 60 60 55 57 68 63 63 67 65 67 66 67 72 79 76 73 74 94 95 83 78 68 74 79 90 93 72 73 73 86 93 82 84 82
78 71 68 70 69 69 63 56 60 63 61 62 63 63 65 67 69 69 80 76 84 98 80 78 80 82 82 76 78 82 76 78 77 85 84 86 92 82
78 72 67 65 62 57 54 52 54 52 56 57 63 61 58 62 67 70 74 75 80 79 85 95 99 98 85 92 96 85 95 78 74 85 81 78 85 95
73 73 76 84 74 68 63 59 56 55 54 57 60 61 61 62 63 70 69 75 81 75 73 71 69 93 95 91 86 93 98 99 85 78 75 90 91 84
83 74 82 83 79 67 59 55 57 57 62 57 60 65 68 64 71 69 72 72 71 66 66 70 72 75 88 97 82 86 92 80 84 88 89 90 91 93
72 72 76 80 72 62 54 54 57 65 68 64 68 70 73 70 70 64 62 69 69 63 61 64 86 72 82 92 92 91 84 91 89 88 85 82 90 81
73 79 82 75 70 65 70 73 75 74 76 77 72 70 75 69 68 64 64 66 65 56 70 69 67 78 70 80 90 87 84 79 85 92 83 85 92 78
81 74 75 75 75 73 78 81 81 78 74 69 72 75 74 72 69 68 69 66 58 60 66 67 76 76 75 76 89 87 84 90 78 79 84 87 91 94
88 81 85 85 82 81 73 76 73 77 71 68 70 70 74 74 65 65 66 62 57 58 58 70 68 79 72 64 72 92 85 86 84 80 86 83 83 83

GFSNE_sfc_rhum_054.txt.gz
RH
84 81 85 80 73 68 62 62 74 79 64 52 54 44 51 50 49 47 51 55 66 64 63 62 57 52 51 53 56 55 56 56 59 61 64 66 66 76
74 75 75 75 64 63 61 63 64 66 66 51 46 52 49 36 44 50 47 54 56 62 64 60 62 58 59 57 60 57 55 53 55 60 65 67 67 74
71 73 72 67 68 67 68 65 62 61 62 53 49 49 55 57 52 56 51 47 46 57 64 60 64 64 61 68 67 62 59 55 54 58 67 69 70 75
75 71 70 52 66 68 68 63 64 56 56 58 51 49 53 59 59 61 44 36 43 46 57 61 62 63 69 73 72 73 71 66 67 62 65 75 79 81
67 68 65 65 69 65 66 62 57 46 57 60 58 52 54 60 59 58 54 56 43 48 54 60 60 59 65 76 75 74 74 74 74 76 76 85 87 88
69 68 64 59 61 60 52 61 51 63 62 62 58 56 57 56 60 62 66 65 61 42 51 56 61 59 60 70 74 73 73 73 73 75 82 91 93 92
64 53 51 55 55 58 48 63 68 71 68 62 63 63 65 68 71 64 71 84 76 72 69 63 64 63 63 65 62 69 73 72 73 78 84 90 93 93
62 57 54 55 63 63 69 67 70 75 73 77 83 84 83 65 74 93 91 81 82 72 84 77 80 76 66 65 66 80 79 75 79 77 82 91 91 94
64 63 53 37 68 66 66 65 62 62 70 78 86 92 95 88 78 77 75 76 78 72 77 85 80 84 75 50 66 73 70 75 75 75 77 90 80 96
66 65 66 64 78 71 72 75 68 64 63 55 78 88 76 66 70 72 82 86 84 77 75 97 84 85 89 86 72 69 71 74 76 78 76 78 91 95
68 70 65 66 67 66 78 83 75 70 55 57 55 57 62 64 67 80 94 94 91 88 85 98 94 93 90 90 92 73 72 77 79 81 79 77 77 92
77 68 72 71 66 66 87 92 90 80 73 67 66 68 67 68 73 80 96 97 95 88 85 88 91 91 98 99 98 92 90 80 82 82 81 79 76 91
88 83 83 69 66 65 63 85 86 77 75 78 80 72 77 80 81 86 87 94 94 91 77 85 98 95 93 84 100 99 95 96 94 92 81 82 81 78
87 86 84 71 67 66 68 65 64 76 85 92 82 78 83 83 81 80 82 88 88 89 83 94 99 97 93 90 91 96 98 99 97 97 96 87 84 81
88 83 75 72 75 75 68 68 73 90 91 92 85 80 80 77 77 78 78 79 82 81 97 98 98 95 97 97 97 95 99 98 99 98 98 97 97 98
86 86 92 85 83 81 85 81 91 91 91 93 92 80 77 82 78 78 81 83 86 85 93 99 99 97 98 97 95 96 91 99 97 98 96 96 98 97
93 93 93 86 91 90 90 86 88 87 88 92 92 87 77 75 75 75 79 83 88 85 83 82 98 99 99 99 97 93 94 99 99 96 93 97 98 96
93 94 94 92 92 94 93 92 90 86 89 87 91 90 90 83 79 76 78 86 88 82 80 76 82 90 98 95 88 98 99 99 99 93 95 99 99 99
96 94 92 89 95 91 92 92 90 90 85 92 92 92 94 88 85 82 80 79 84 79 77 80 97 87 91 97 97 85 98 97 97 98 98 98 99 99
93 93 90 88 88 92 91 89 91 92 92 94 93 94 94 94 89 83 82 86 85 76 75 78 86 90 95 98 97 99 84 98 98 99 97 96 97 85
86 95 88 85 94 93 94 93 92 94 93 94 96 94 94 94 94 89 85 84 81 71 77 87 82 88 91 95 98 99 97 80 88 98 98 99 99 98
85 83 84 85 92 93 95 95 96 95 95 96 94 93 95 94 94 92 93 89 82 83 76 71 74 89 97 93 97 98 98 97 85 84 86 90 99 98
89 86 86 88 92 93 94 94 92 94 93 92 93 92 94 94 94 93 92 91 82 82 74 75 77 75 97 84 94 98 96 99 98 98 98 86 85 85

GFSNE_sfc_rhum_057.txt.gz
RH
85 86 86 87 87 78 74 66 75 90 72 70 68 55 58 57 54 58 57 54 64 64 64 58 49 47 49 50 50 50 51 54 54 54 54 56 60 62
81 80 81 83 80 75 68 66 70 70 73 67 64 62 57 44 48 62 58 52 56 61 62 66 63 53 51 52 50 49 52 61 58 55 54 53 56 61
80 81 79 75 75 74 71 71 75 75 78 68 63 61 61 62 62 64 61 61 61 60 63 62 62 65 66 65 62 59 58 60 59 56 56 55 56 59
80 79 72 58 70 75 74 71 68 68 72 71 70 64 65 64 66 66 49 40 52 51 61 64 64 64 66 67 72 70 69 69 65 63 60 58 56 56
78 77 75 74 78 70 65 66 67 53 72 77 71 68 60 67 64 65 66 68 52 53 58 60 62 64 65 67 66 71 74 75 75 76 74 69 65 61
76 77 73 66 58 58 56 61 59 74 76 79 71 66 68 65 74 75 71 75 81 60 62 66 68 63 62 65 70 68 71 73 75 77 77 80 82 80
70 63 59 57 58 58 53 71 76 77 79 76 73 75 77 79 84 72 93 92 77 81 73 65 80 68 66 67 64 66 68 74 79 78 80 82 84 87
72 68 61 59 62 67 67 66 73 77 79 92 83 85 84 82 95 88 91 83 82 75 90 78 74 74 72 72 69 72 72 80 77 77 81 80 85 92
76 71 62 56 71 68 64 64 66 61 72 86 88 84 95 89 85 81 79 85 87 79 86 91 82 89 81 63 70 71 70 73 75 79 80 80 84 86
76 74 74 77 74 73 73 78 75 74 71 63 77 76 77 69 75 75 85 88 86 80 81 96 92 94 89 89 77 73 74 73 75 77 79 79 80 91
74 74 78 79 67 64 78 85 78 76 60 65 63 66 68 69 68 82 95 96 91 87 93 90 97 89 94 88 92 78 77 81 77 76 79 80 80 83
84 79 70 74 67 67 90 94 94 78 83 76 74 74 75 76 77 86 91 96 94 92 88 96 83 96 96 98 97 97 93 91 93 79 78 81 80 90
94 92 86 71 69 67 67 89 89 80 82 83 84 88 78 89 92 91 89 94 96 94 82 88 92 91 96 97 96 99 99 96 98 92 82 82 80 81
89 92 89 77 72 70 77 75 69 80 96 94 96 84 89 83 81 87 86 87 84 87 82 97 98 98 97 96 94 95 93 98 99 98 98 88 85 84
91 89 80 76 74 84 82 78 81 91 92 98 91 93 90 81 79 82 80 80 82 84 75 98 99 99 98 98 97 95 97 99 100 99 99 99 97 99
93 91 94 96 96 90 89 84 92 94 94 94 96 92 92 89 88 81 83 82 92 90 75 79 93 98 99 98 99 96 97 97 99 98 98 99 99 99
98 98 99 97 94 89 93 92 91 92 94 95 94 94 90 92 83 82 82 85 92 88 81 74 75 87 98 98 92 97 95 98 99 97 94 98 98 98
98 99 98 98 97 93 95 93 94 90 96 93 95 96 96 97 91 84 83 87 89 84 81 78 90 86 95 97 89 97 98 98 98 93 97 99 98 99
97 98 99 96 93 94 91 94 93 92 88 95 96 95 97 95 95 93 88 86 86 83 82 85 91 91 90 99 96 84 98 98 96 98 98 99 98 99
93 95 96 94 92 92 91 94 95 95 96 97 96 96 98 97 97 94 91 94 89 82 75 76 85 89 95 98 98 98 84 99 99 99 98 99 99 98
93 95 94 94 92 90 94 95 94 96 96 98 97 99 98 97 96 96 95 91 92 79 79 78 74 77 94 98 98 98 97 82 90 98 98 98 98 98
93 94 93 94 93 92 96 95 95 96 97 98 97 99 98 97 96 97 96 96 90 91 80 71 70 84 96 96 98 99 99 98 90 87 88 90 98 98
94 95 92 92 91 93 94 94 93 95 95 97 97 97 99 94 96 97 97 95 96 90 83 80 76 75 83 85 98 99 98 100 99 98 97 87 87 89

GFSNE_sfc_rhum_063.txt.gz
RH
85 87 92 94 96 96 96 96 97 94 96 84 75 64 63 64 59 64 68 59 57 58 56 54 52 52 51 50 50 50 50 50 50 50 50 50 49 50
84 86 88 91 87 85 84 86 95 97 95 78 72 65 63 50 54 61 64 58 59 55 53 54 54 54 53 53 53 53 53 53 52 52 52 51 52 51
83 83 84 86 84 83 86 94 97 98 97 74 74 71 71 71 66 70 70 71 70 59 58 57 58 63 64 62 62 60 57 56 55 55 56 54 53 54
80 81 84 73 84 84 83 75 73 70 72 70 73 75 75 72 72 74 61 53 68 62 62 64 61 60 60 60 62 65 67 67 64 59 58 59 60 59
82 83 84 85 87 86 75 72 70 55 72 78 80 78 79 75 74 74 74 77 66 64 59 58 57 58 61 60 62 64 68 67 71 74 75 70 66 63
84 87 87 87 88 81 66 66 61 69 77 80 78 71 75 75 83 85 83 82 70 58 62 64 62 63 63 65 65 65 64 65 69 73 76 78 80 79
81 82 82 68 65 67 59 64 72 78 79 78 76 75 77 84 86 84 91 79 77 75 74 72 74 72 74 75 72 72 72 73 72 70 75 77 78 80
93 92 88 78 76 73 70 66 73 75 78 86 80 79 86 88 98 94 88 91 90 83 92 85 82 81 77 79 75 76 75 74 75 75 75 79 79 79
95 90 78 60 71 75 77 75 72 66 79 85 91 90 97 89 82 89 89 90 90 83 92 85 85 88 77 68 72 72 73 74 77 78 80 79 79 82
85 81 77 75 76 74 74 77 73 70 67 61 78 87 85 80 85 80 91 94 91 84 90 95 84 90 83 82 77 73 74 79 82 82 82 83 83 83
77 81 78 80 76 76 82 86 79 74 58 58 64 65 67 68 68 93 93 97 92 85 85 95 96 87 84 85 84 76 77 80 81 82 80 81 83 87
87 82 82 83 78 78 91 92 94 80 71 70 78 75 71 79 76 85 97 97 94 92 92 96 82 90 97 96 94 95 91 81 81 83 80 80 82 92
88 90 88 83 80 77 76 91 91 80 79 82 86 89 87 90 88 87 90 97 96 88 76 87 98 90 94 95 97 96 96 92 95 96 96 94 87 90
94 92 90 84 82 80 79 83 82 88 94 96 98 94 92 91 85 88 86 89 90 89 80 90 97 94 94 91 90 96 94 91 97 99 97 93 87 84
95 92 88 87 96 86 84 86 90 97 98 100 97 94 94 88 81 87 81 81 84 86 80 92 94 90 92 95 95 93 93 94 91 99 99 98 99 99
99 98 97 97 96 95 96 91 96 97 96 96 97 97 94 92 95 92 92 88 95 94 78 81 86 90 94 92 94 89 90 97 96 95 99 98 99 99
94 98 98 96 96 95 96 96 95 97 99 98 98 96 94 95 97 97 96 92 97 93 86 79 76 83 90 97 98 94 95 98 98 99 97 98 97 96
97 97 95 95 96 95 96 94 95 96 95 96 96 93 93 95 97 97 97 98 98 92 91 86 83 88 90 89 93 97 97 98 98 97 98 98 98 98
98 96 94 94 94 95 95 94 94 94 93 97 95 92 95 94 98 98 97 98 97 93 91 88 88 91 94 99 87 87 96 96 97 98 98 99 98 98
98 96 96 94 93 94 96 95 93 95 97 96 95 94 96 96 98 98 97 99 98 93 88 80 82 86 95 97 98 96 94 96 100 99 99 99 98 95
95 96 97 96 96 93 96 96 94 96 96 97 94 94 97 97 99 98 98 97 98 92 91 85 74 78 94 96 98 97 97 86 86 96 98 100 99 99
98 97 94 96 97 96 96 96 96 98 98 96 96 95 97 98 98 98 99 99 97 98 94 83 73 75 94 96 96 97 98 97 88 88 96 98 98 99
96 98 98 97 96 97 96 97 96 96 96 96 95 94 97 100 97 97 98 97 98 97 97 92 78 75 84 91 97 98 98 99 99 96 96 96 97 97

GFSNE_sfc_rhum_069.txt.gz
RH
67 68 60 52 54 51 54 60 69 66 43 44 52 49 46 46 44 42 43 46 55 57 59 60 59 58 57 56 56 56 55 54 53 52 52 52 52 52
59 62 57 53 53 53 52 54 55 59 60 41 46 49 48 36 37 45 42 52 49 58 62 62 63 62 61 60 58 58 58 59 60 58 58 57 56 56
62 61 60 57 54 52 55 55 56 62 65 50 50 46 46 43 40 42 40 37 38 52 62 65 65 65 63 64 63 61 61 60 60 59 59 58 58 60
61 61 61 50 60 58 56 58 57 58 72 64 48 42 45 43 45 46 35 31 39 45 61 61 59 61 61 61 62 62 62 62 62 61 61 60 59 58
60 61 59 59 60 55 56 57 55 54 57 61 53 42 43 44 44 41 38 43 38 49 52 54 56 62 66 64 65 66 65 65 65 65 66 68 66 66
64 65 62 60 58 57 58 60 64 63 65 60 48 45 44 43 45 43 39 37 37 34 43 51 59 59 63 64 66 68 68 68 69 70 75 77 77 72
64 61 61 65 74 72 58 59 60 60 58 52 47 45 46 45 46 39 46 42 44 42 42 40 40 40 43 50 52 61 64 69 71 72 72 76 78 78
61 58 58 73 72 88 89 87 75 58 56 52 49 53 50 46 50 49 51 53 56 42 49 48 41 41 41 41 52 63 69 70 70 70 71 76 78 81
59 59 56 56 74 62 72 78 79 78 73 58 69 58 66 58 45 48 48 49 49 43 48 58 49 50 45 39 56 63 68 72 74 74 75 79 82 86
64 62 62 61 61 66 59 55 53 53 56 54 54 52 51 48 45 51 60 63 57 45 45 75 54 56 50 49 57 63 69 70 72 73 75 82 84 83
63 64 64 63 72 79 69 75 64 57 59 68 67 67 71 66 69 65 73 72 73 58 51 64 58 54 54 56 53 59 64 69 75 77 76 76 79 81
67 68 82 81 81 83 85 90 93 68 55 54 53 56 57 54 69 63 65 75 65 66 47 63 50 56 68 54 58 60 62 68 74 73 77 78 78 74
67 67 74 84 89 87 84 86 94 68 69 62 59 57 54 54 57 58 60 69 69 63 46 52 62 60 64 64 57 58 64 69 70 71 74 78 82 84
91 70 69 83 87 89 86 86 89 86 92 82 76 72 71 67 61 60 58 59 56 59 48 69 82 72 71 70 64 56 63 72 82 81 83 77 80 87
88 93 89 84 90 90 95 98 98 96 93 94 85 72 65 61 61 64 61 58 60 62 54 62 68 62 67 79 75 72 78 74 72 86 88 86 86 83
82 89 97 98 98 94 92 89 94 94 91 88 88 71 72 75 75 66 67 64 71 69 56 60 62 66 70 61 60 68 66 86 76 80 87 95 80 77
97 97 96 93 93 95 89 85 81 81 88 85 90 87 85 78 76 72 68 66 72 64 61 54 53 59 63 67 72 62 68 83 76 85 84 83 75 76
97 97 97 97 94 92 91 86 81 82 79 80 86 85 86 79 75 76 70 72 71 64 62 55 56 63 63 59 68 71 85 87 80 85 92 90 81 85
96 97 97 98 97 93 87 91 87 82 85 84 85 86 89 77 86 80 76 74 72 65 61 60 61 65 75 84 60 75 84 73 81 81 79 86 93 91
80 89 94 95 90 87 88 90 86 86 92 89 89 89 91 82 87 80 75 79 73 64 59 53 53 56 74 85 87 77 71 91 85 85 81 80 80 89
78 77 84 85 87 90 96 95 96 95 95 94 92 90 91 82 86 79 76 80 81 65 63 58 51 60 63 81 91 85 90 90 93 92 85 82 86 77
83 83 85 84 89 90 91 95 98 96 95 91 93 94 92 87 85 84 84 81 72 68 63 58 48 53 67 83 83 90 86 90 78 86 94 96 94 88
86 82 84 85 86 89 86 89 91 96 94 91 91 92 92 90 85 85 84 78 72 70 65 62 49 54 65 70 81 83 88 88 81 74 85 92 93 95

GFSNE_sfc_rhum_072.txt.gz
RH
50 50 45 39 41 40 38 37 42 51 36 29 29 32 35 37 44 42 41 50 53 55 54 59 60 60 61 61 60 60 59 58 56 55 54 53 52 52
43 47 46 41 41 41 38 38 38 42 47 32 29 31 36 34 39 38 39 48 51 52 50 57 63 64 64 64 63 62 61 61 60 59 58 57 57 57
45 48 48 46 44 42 40 38 40 39 42 36 31 32 44 44 38 38 38 37 33 50 49 53 61 63 62 61 62 64 62 61 61 60 59 58 58 57
45 47 48 38 47 46 42 44 41 39 40 48 44 38 46 44 43 43 34 26 30 39 50 53 60 59 60 61 64 64 64 63 62 62 62 61 60 60
45 46 45 46 48 44 42 41 38 33 38 45 47 41 44 42 42 39 36 35 25 40 53 55 52 50 57 61 62 63 65 65 66 66 66 66 65 64
45 46 45 46 47 46 42 42 39 41 44 53 55 59 47 41 38 36 35 29 28 23 37 48 50 49 56 59 57 59 62 66 67 68 70 74 77 74
43 43 47 52 67 66 43 45 44 46 57 62 69 56 43 37 38 33 36 33 33 34 34 33 33 34 36 45 47 53 55 59 64 68 70 72 77 76
42 41 39 55 62 83 84 84 72 57 64 68 62 57 45 38 41 40 40 41 45 36 39 40 34 36 34 34 54 54 58 62 66 70 71 73 77 78
40 40 37 31 53 48 64 87 88 89 90 69 67 58 60 54 50 45 39 38 39 36 42 48 42 45 38 30 59 56 58 65 70 73 75 78 80 81
42 43 45 46 46 50 49 50 49 49 58 53 50 46 46 46 45 42 45 50 50 43 40 65 47 48 44 40 54 55 58 66 66 71 75 78 80 82
45 46 45 48 56 73 62 68 60 53 57 69 71 74 68 68 65 57 65 71 74 52 41 50 50 46 44 46 47 56 61 66 69 71 72 75 78 81
60 56 65 62 70 82 79 80 88 64 55 57 54 60 69 60 74 62 60 73 64 61 43 54 44 44 60 48 50 49 53 60 70 72 75 76 77 69
61 63 69 77 84 86 90 80 85 66 66 67 57 56 52 50 46 55 54 64 70 62 43 48 52 49 54 56 49 48 54 67 65 75 72 75 76 76
66 60 60 78 83 89 95 89 87 89 87 88 81 72 66 61 55 55 58 59 56 57 43 60 75 62 63 64 58 48 55 68 80 80 73 76 80 84
73 74 78 84 84 95 99 97 98 99 98 100 91 79 69 63 60 59 60 58 56 54 49 57 62 56 58 63 61 59 65 64 68 77 75 76 77 73
80 79 81 84 86 90 97 97 99 96 92 93 87 68 66 86 78 66 69 65 74 72 53 52 55 58 63 56 53 56 53 72 71 72 75 80 79 72
96 90 81 76 78 81 91 94 93 88 91 83 78 76 79 83 83 76 70 66 71 61 54 48 46 50 54 56 66 54 58 71 72 73 75 73 69 82
79 87 98 99 91 85 96 93 89 91 80 76 84 82 79 86 83 81 70 74 73 61 55 48 48 57 54 56 63 66 78 83 77 68 70 84 74 73
77 78 85 89 89 88 94 94 94 83 96 90 85 88 84 82 93 80 80 72 75 64 54 52 55 56 62 83 60 72 71 70 76 80 76 84 88 75
65 74 81 81 78 74 75 81 90 86 90 90 96 95 97 90 91 78 75 78 74 63 51 45 48 48 59 77 84 78 77 88 85 87 83 76 74 76
64 66 72 74 76 77 85 87 94 97 99 100 97 93 100 92 86 77 73 77 74 60 55 51 45 59 49 67 88 84 96 79 88 89 80 80 75 70
74 70 69 72 79 80 86 89 91 91 91 97 100 100 100 96 87 83 81 81 73 65 56 48 45 40 52 65 78 84 91 87 83 82 90 94 91 85
78 75 77 79 78 80 80 83 85 91 89 91 95 96 100 97 87 84 82 76 69 63 56 54 47 40 48 49 68 74 88 85 75 70 93 86 86 88

GFSNE_sfc_rhum_075.txt.gz
RH
52 50 46 42 40 37 37 38 44 54 42 34 32 31 30 32 40 39 43 58 60 59 59 54 52 58 61 61 61 62 62 60 58 57 55 54 53 52
43 46 46 42 39 38 36 38 38 43 50 34 32 35 34 24 36 40 40 55 56 60 65 58 51 55 60 62 62 62 63 62 61 60 60 59 58 57
45 45 46 44 42 40 39 38 38 40 45 40 33 35 40 43 37 41 41 40 42 60 66 55 52 55 58 62 63 62 63 63 63 62 61 61 60 59
44 45 43 33 43 44 42 44 42 41 42 48 40 38 42 42 46 52 39 31 36 41 58 54 55 56 57 59 59 62 64 65 64 64 63 62 62 60
43 41 40 40 45 44 44 42 41 32 40 42 43 40 39 40 42 46 46 45 32 43 56 57 58 57 57 54 58 62 62 64 65 65 65 66 66 65
38 39 39 40 42 45 43 46 40 44 42 42 41 41 43 44 49 56 55 46 38 25 36 47 53 52 56 59 63 61 63 61 62 63 66 72 74 70
38 34 38 44 65 61 44 51 51 48 46 45 44 49 54 59 59 54 56 51 43 35 35 37 35 35 38 50 55 63 60 57 58 61 64 69 74 72
36 34 32 46 45 73 74 75 64 58 60 61 59 60 60 63 56 57 56 54 54 40 42 45 37 38 38 38 57 56 55 56 60 62 67 71 75 78
38 38 34 27 47 38 56 79 79 82 83 69 70 63 68 59 53 50 51 51 48 38 45 52 49 51 43 31 57 62 62 62 60 68 70 76 79 81
44 43 45 46 47 52 49 53 52 52 65 63 64 59 54 51 52 54 56 51 48 44 45 72 56 53 50 47 53 59 63 66 63 69 71 75 80 81
49 48 46 50 59 74 68 68 63 66 56 69 70 72 74 71 65 62 73 74 78 61 53 59 55 51 49 50 52 62 62 67 71 73 75 75 78 81
51 45 59 56 71 81 78 82 97 74 70 69 59 67 70 61 78 64 64 77 66 67 52 61 59 49 60 52 50 55 58 60 64 68 72 74 79 72
61 58 56 68 74 77 85 81 91 79 76 94 89 66 81 67 59 62 62 70 74 68 52 55 57 53 58 58 55 57 61 66 66 73 69 72 81 80
70 68 66 75 80 81 81 79 85 94 97 95 93 92 78 69 62 61 67 64 60 61 53 65 78 67 72 70 64 58 64 67 76 76 78 75 74 76
72 76 82 84 87 84 88 90 90 98 98 98 94 84 76 75 66 75 73 67 65 66 55 62 66 62 67 74 70 70 73 70 68 76 87 77 77 76
70 72 77 83 84 89 89 84 91 96 97 90 82 75 75 83 83 76 83 92 84 79 61 64 64 66 68 65 63 71 64 73 70 72 77 82 75 78
81 81 77 77 77 75 81 77 85 97 97 84 80 75 72 68 76 80 92 81 91 75 66 59 58 64 66 65 73 62 67 76 73 85 84 75 74 77
71 73 81 88 86 80 81 85 95 96 96 85 84 80 79 77 74 81 82 86 85 76 64 54 51 60 58 57 63 72 85 84 79 80 73 86 80 76
66 65 77 84 88 80 77 80 82 82 98 94 88 94 88 81 82 86 88 87 85 70 63 59 58 58 63 81 57 77 77 67 74 78 83 84 89 80
56 62 68 72 73 71 75 82 82 83 85 87 99 99 100 97 89 90 84 86 84 67 59 50 51 51 60 70 77 76 77 83 80 84 82 81 77 74
58 59 65 67 72 74 82 87 90 91 91 95 92 96 100 90 95 91 89 79 79 66 62 56 47 66 50 57 77 81 86 91 80 81 75 82 76 70
70 66 66 69 77 79 84 90 88 89 92 93 95 96 98 94 95 95 92 89 75 66 63 56 46 46 50 53 65 76 73 97 82 85 84 90 84 86
78 75 74 78 74 75 76 84 84 88 88 92 91 91 95 94 96 95 93 85 75 77 63 57 49 46 45 46 56 62 73 78 72 76 88 88 87 86

GFSNE_sfc_rhum_081.txt.gz
RH
79 81 84 76 71 69 65 66 72 85 80 72 69 58 59 58 65 86 80 77 78 78 76 70 64 61 60 56 52 51 52 54 57 59 59 58 58 57
92 93 77 73 70 73 67 69 75 78 74 73 68 65 58 44 57 78 68 68 79 79 79 77 72 65 63 57 52 52 51 51 56 60 60 59 59 58
89 83 77 71 75 76 76 74 74 78 80 74 72 66 65 64 59 65 72 73 80 84 81 79 78 78 73 67 59 57 54 54 58 60 60 61 60 59
77 72 70 60 75 79 81 78 79 77 76 69 72 75 68 62 65 66 58 53 62 65 78 76 71 76 73 71 70 69 64 62 62 61 62 63 64 61
71 71 71 68 69 74 74 79 80 66 82 88 84 77 75 73 67 65 66 73 64 66 72 73 77 75 74 73 74 73 72 73 74 68 67 67 67 66
69 65 60 60 64 67 67 73 71 81 83 86 85 82 79 75 77 79 82 85 82 57 59 62 66 72 75 74 75 75 74 74 74 74 75 76 76 70
60 54 54 62 74 74 62 69 74 82 87 89 80 90 90 85 81 84 88 92 95 94 93 76 66 62 64 57 60 73 72 71 71 77 77 77 77 72
58 60 60 63 58 71 78 82 87 87 89 92 85 88 84 92 88 87 93 98 99 93 92 78 70 69 65 66 60 66 69 69 66 67 69 72 73 74
64 66 63 54 77 76 78 79 80 82 89 92 92 90 89 90 90 95 97 94 95 84 68 74 77 73 70 50 64 68 66 70 72 73 72 74 75 79
79 76 74 74 72 73 76 79 80 81 81 75 88 91 89 86 89 88 86 90 89 82 72 91 82 81 81 82 70 68 66 68 68 69 73 75 77 80
71 74 73 76 74 76 82 87 87 85 70 74 76 79 87 88 91 98 97 89 96 93 85 91 83 87 84 83 76 64 67 69 72 72 70 70 72 76
82 76 79 80 84 86 90 91 91 81 80 82 82 85 84 86 91 95 92 97 96 96 84 88 84 90 96 84 78 76 79 67 65 64 66 70 70 77
85 86 86 81 81 79 79 87 90 86 90 90 91 85 83 78 76 84 96 94 90 87 79 81 90 88 95 93 90 76 83 84 86 86 73 71 70 73
81 83 86 74 71 76 86 88 90 93 88 85 88 86 88 83 83 87 95 94 82 76 73 83 93 93 96 98 95 86 93 93 95 92 92 80 79 80
80 75 73 75 79 87 83 79 85 93 93 92 93 93 82 80 89 93 92 97 96 84 74 83 90 89 94 93 93 90 96 94 94 94 97 90 87 87
82 82 84 87 89 90 86 80 89 88 89 94 93 88 88 92 94 90 98 98 98 98 93 87 85 84 94 89 86 86 88 96 90 93 87 95 95 96
87 90 89 87 91 86 84 81 83 84 87 86 90 89 87 86 96 93 93 97 97 91 91 95 88 84 94 84 90 90 89 90 89 93 94 95 97 94
88 95 96 97 97 89 93 90 84 86 83 83 87 86 90 90 94 98 98 98 91 88 96 97 90 96 98 88 80 89 95 92 89 96 95 98 94 96
97 97 97 97 98 94 91 89 90 88 84 86 87 89 91 88 90 93 96 98 92 90 96 97 94 97 95 96 84 80 91 96 97 98 96 98 98 93
85 96 97 97 96 90 90 90 89 93 92 91 89 92 91 93 91 92 93 97 96 97 96 93 90 86 91 91 93 93 82 95 98 97 98 98 94 85
92 93 97 97 98 97 100 99 99 99 96 98 91 92 92 91 90 90 93 92 93 96 96 96 81 81 85 88 89 91 90 74 83 94 97 98 98 97
96 95 96 99 97 99 99 100 96 98 93 92 93 95 93 91 91 92 93 94 91 93 94 92 76 71 84 77 86 91 92 93 92 90 90 86 97 98
98 99 100 99 98 98 99 100 100 100 97 94 95 91 91 92 88 92 93 93 92 92 97 90 78 81 76 70 84 92 87 89 95 98 98 92 91 88

GFSNE_sfc_rhum_087.txt.gz
RH
96 95 93 95 92 84 79 76 79 81 76 69 71 66 69 71 69 72 76 79 86 89 87 83 79 74 72 65 64 62 65 64 58 54 50 51 52 56
94 95 94 92 87 91 82 80 76 75 88 78 75 72 70 58 64 73 72 73 83 88 90 88 83 79 76 74 70 71 73 66 64 56 51 51 52 53
96 94 92 87 87 86 85 82 81 83 92 85 84 80 78 74 69 74 74 77 82 83 87 89 87 85 81 78 76 79 77 70 65 59 51 51 52 52
93 90 86 86 88 87 87 84 83 91 91 92 90 88 84 80 81 80 65 59 73 72 84 83 87 87 85 82 80 81 81 74 71 66 54 52 53 55
90 92 92 92 90 88 84 85 92 79 93 95 92 93 90 86 80 77 75 76 65 66 76 87 88 87 86 85 84 84 82 74 76 74 73 71 61 60
92 93 90 87 87 81 74 81 78 84 88 91 93 93 93 88 90 91 88 86 81 59 63 68 74 76 79 80 81 82 78 78 79 77 80 81 81 76
93 87 86 82 78 73 69 75 80 86 91 92 92 94 94 93 92 92 94 88 92 87 83 87 82 85 86 78 77 78 82 81 77 78 79 79 76 76
88 74 70 82 81 81 81 83 77 79 82 92 92 92 90 93 94 95 96 96 92 94 97 94 94 89 82 81 72 76 70 67 68 68 72 73 73 75
81 75 66 62 77 70 77 73 77 76 85 85 92 93 92 90 91 94 97 96 90 75 94 88 92 85 75 59 67 70 71 72 71 74 75 74 75 79
78 76 75 74 81 84 85 85 84 84 84 81 91 92 92 89 91 88 89 90 85 78 87 96 91 84 78 71 65 64 69 73 76 79 74 76 76 78
74 75 74 81 76 74 84 86 82 80 70 73 76 80 83 85 86 92 93 95 88 81 85 94 88 89 83 80 77 70 70 75 78 74 69 64 69 72
75 76 75 79 78 74 84 90 97 84 93 91 87 82 82 88 89 91 92 97 93 92 78 93 86 94 96 91 87 82 84 71 65 62 63 60 61 82
77 76 79 69 67 67 75 93 87 86 89 93 88 87 88 84 84 88 96 97 96 93 77 90 98 96 96 90 93 86 83 85 87 83 68 65 66 69
74 78 77 69 69 78 86 67 72 87 95 91 90 87 85 86 83 82 83 86 96 97 86 96 98 95 94 96 94 88 91 94 96 92 90 79 75 73
75 71 72 72 77 89 68 68 84 91 91 93 88 82 84 79 76 81 80 79 81 87 92 95 97 96 93 94 94 94 95 96 95 95 97 94 90 94
81 77 83 87 90 84 80 79 83 85 85 86 86 86 77 80 81 81 88 83 90 85 82 89 97 98 97 95 95 92 96 97 98 96 96 94 96 95
91 90 89 85 82 81 80 76 74 73 80 84 89 86 81 82 84 83 83 84 91 89 85 80 95 96 97 96 96 94 96 97 95 93 98 96 95 96
87 94 96 96 92 86 90 86 79 81 81 83 94 90 90 90 90 85 84 91 93 88 85 84 96 97 97 97 91 94 99 97 96 95 95 98 97 95
96 96 97 97 96 94 91 87 93 95 87 96 99 95 94 92 92 89 87 88 90 86 84 84 94 97 96 94 94 88 96 96 97 99 97 99 98 89
94 95 96 96 92 88 88 92 94 97 98 97 98 98 99 93 94 90 89 94 92 86 83 74 91 96 96 92 95 94 86 94 97 97 98 98 93 82
89 89 97 96 95 95 100 100 100 100 100 100 100 100 100 95 96 93 93 92 92 83 87 82 78 93 94 96 97 91 90 80 88 92 91 98 93 98
98 94 92 95 99 100 100 100 100 100 100 100 100 100 100 100 99 98 95 94 90 89 86 78 79 89 95 96 96 93 91 93 76 80 80 80 95 96
99 97 99 100 100 99 98 100 100 100 100 98 100 99 100 100 98 96 95 93 91 90 85 85 87 90 94 90 90 94 91 90 90 90 94 90 88 84